{"data":{"norad_id":55264,"epoch":"2026-07-18T17:14:05.313984Z","epoch_age_seconds":5528985,"freshness":"OLD","line1":"1 55264U 23008B   26199.71811706 -.00000253  00000+0  00000+0 0  9992","line2":"2 55264   2.4283  81.2748 0001593  72.4873 164.8316  0.99148875 12128","mean_motion":0.99148875,"eccentricity":0.0001593,"inclination_deg":2.4283,"raan_deg":81.2748,"arg_perigee_deg":72.4873,"mean_anomaly_deg":164.8316,"bstar":0,"rev_number":1212,"period_min":1452.3614110599,"perigee_km":36097.587194713,"apogee_km":36111.122116555,"semimajor_km":42482.491655634,"source":"CELESTRAK","updated_at":"2026-07-19T09:00:42.448322Z"}}